When you browse on this site, cookies collect data to enhance your experience and personalize the content and advertising you see.
Visit our Privacy Policy to learn more. By continuing to use the site, you agree to this use of cookies and data.

Hourly Weather Aleksandrovka

Today, 28 September, Monday

Time Temperature Precipitation Wind Pressure Humidity
00:00 +20°C° 0 mm 6 mps 750 mmHg 53%
01:00 +19°C° 0 mm 5 mps 751 mmHg 56%
02:00 +18°C° 0 mm 4 mps 751 mmHg 63%
03:00 +17°C° 0 mm 4 mps 752 mmHg 65%
04:00 +17°C° 0 mm 4 mps 752 mmHg 67%
05:00 +17°C° 0 mm 4 mps 752 mmHg 69%
06:00 +17°C° 0 mm 4 mps 753 mmHg 66%
07:00 +18°C° 0 mm 4 mps 753 mmHg 63%
08:00 +19°C° 0 mm 5 mps 753 mmHg 60%
09:00 +20°C° 0 mm 4 mps 754 mmHg 56%
10:00 +22°C° 0 mm 4 mps 754 mmHg 51%
11:00 +23°C° 0 mm 4 mps 754 mmHg 47%
12:00 +25°C° 0 mm 4 mps 754 mmHg 44%
13:00 +26°C° 0 mm 4 mps 753 mmHg 42%
14:00 +27°C° 0 mm 4 mps 753 mmHg 39%
15:00 +26°C° 0 mm 4 mps 753 mmHg 41%
16:00 +25°C° 0 mm 3 mps 753 mmHg 42%
17:00 +24°C° 0 mm 3 mps 753 mmHg 44%
18:00 +22°C° 0 mm 4 mps 753 mmHg 44%
19:00 +21°C° 0 mm 4 mps 753 mmHg 45%
20:00 +19°C° 0 mm 4 mps 753 mmHg 45%
21:00 +19°C° 0 mm 4 mps 753 mmHg 45%
22:00 +17°C° 0 mm 5 mps 753 mmHg 45%
23:00 +17°C° 0 mm 5 mps 752 mmHg 46%

Tomorrow, 29 September, Tuesday

Time Temperature Precipitation Wind Pressure Humidity
00:00 +16°C° 0 mm 5 mps 752 mmHg 47%
01:00 +16°C° 0 mm 5 mps 753 mmHg 48%
02:00 +15°C° 0 mm 5 mps 753 mmHg 49%
03:00 +15°C° 0 mm 5 mps 752 mmHg 50%
04:00 +14°C° 0 mm 6 mps 752 mmHg 51%
05:00 +14°C° 0 mm 7 mps 752 mmHg 53%
06:00 +14°C° 0 mm 7 mps 752 mmHg 52%
07:00 +15°C° 0 mm 7 mps 752 mmHg 52%
08:00 +15°C° 0 mm 7 mps 752 mmHg 51%
09:00 +17°C° 0 mm 7 mps 751 mmHg 49%
10:00 +18°C° 0 mm 7 mps 751 mmHg 47%
11:00 +21°C° 0 mm 7 mps 751 mmHg 44%
12:00 +21°C° 0 mm 7 mps 750 mmHg 42%
13:00 +22°C° 0 mm 7 mps 750 mmHg 39%
14:00 +22°C° 0 mm 7 mps 750 mmHg 37%
15:00 +22°C° 0 mm 7 mps 749 mmHg 35%
16:00 +22°C° 0 mm 7 mps 749 mmHg 33%
17:00 +22°C° 0 mm 7 mps 748 mmHg 31%
18:00 +21°C° 0 mm 7 mps 748 mmHg 31%
19:00 +21°C° 0 mm 7 mps 748 mmHg 31%
20:00 +21°C° 0 mm 7 mps 748 mmHg 31%
21:00 +20°C° 0 mm 7 mps 747 mmHg 33%
22:00 +20°C° 0 mm 7 mps 746 mmHg 34%
23:00 +18°C° 0 mm 7 mps 746 mmHg 36%

Day after tomorrow, 30 September, Wednesday

Time Temperature Precipitation Wind Pressure Humidity
00:00 +18°C° 0 mm 8 mps 746 mmHg 39%
01:00 +17°C° 0 mm 8 mps 746 mmHg 41%
02:00 +16°C° 0 mm 8 mps 746 mmHg 44%
03:00 +16°C° 0 mm 8 mps 746 mmHg 45%
04:00 +15°C° 0 mm 8 mps 745 mmHg 45%
05:00 +15°C° 0 mm 8 mps 745 mmHg 46%
06:00 +15°C° 0 mm 8 mps 745 mmHg 47%
07:00 +15°C° 0 mm 9 mps 745 mmHg 47%
08:00 +15°C° 0 mm 9 mps 745 mmHg 47%
09:00 +17°C° 0 mm 9 mps 745 mmHg 44%
10:00 +18°C° 0 mm 9 mps 745 mmHg 41%
11:00 +19°C° 0 mm 9 mps 745 mmHg 38%
12:00 +21°C° 0 mm 9 mps 744 mmHg 36%
13:00 +22°C° 0 mm 9 mps 744 mmHg 33%
14:00 +22°C° 0 mm 9 mps 744 mmHg 31%
15:00 +21°C° 0.5 mm 8 mps 744 mmHg 38%
16:00 +20°C° 0.5 mm 6 mps 744 mmHg 45%
17:00 +17°C° 0.5 mm 5 mps 744 mmHg 52%
18:00 +17°C° 0.4 mm 6 mps 744 mmHg 51%
19:00 +17°C° 0.4 mm 6 mps 744 mmHg 50%
20:00 +17°C° 0.4 mm 7 mps 744 mmHg 50%
21:00 +17°C° 0.3 mm 7 mps 744 mmHg 52%
22:00 +16°C° 0.3 mm 7 mps 744 mmHg 54%
23:00 +16°C° 0.3 mm 7 mps 744 mmHg 56%

1 October, Thursday

Time Temperature Precipitation Wind Pressure Humidity
00:00 +16°C° 0.1 mm 7 mps 745 mmHg 58%
01:00 +15°C° 0.1 mm 7 mps 745 mmHg 59%
02:00 +15°C° 0.1 mm 7 mps 745 mmHg 61%
03:00 +14°C° 0.1 mm 7 mps 745 mmHg 60%
04:00 +14°C° 0.1 mm 7 mps 745 mmHg 59%
05:00 +14°C° 0.1 mm 6 mps 746 mmHg 58%
06:00 +14°C° 0.1 mm 7 mps 746 mmHg 58%
07:00 +14°C° 0.1 mm 7 mps 746 mmHg 58%
08:00 +13°C° 0.1 mm 8 mps 746 mmHg 58%
09:00 +13°C° 1 mm 8 mps 746 mmHg 62%
10:00 +13°C° 1 mm 8 mps 746 mmHg 66%
11:00 +14°C° 1 mm 7 mps 746 mmHg 70%
12:00 +14°C° 0.4 mm 7 mps 746 mmHg 72%
13:00 +14°C° 0.4 mm 7 mps 746 mmHg 73%
14:00 +14°C° 0.4 mm 7 mps 746 mmHg 74%
15:00 +15°C° 0 mm 6 mps 746 mmHg 70%
16:00 +15°C° 0 mm 5 mps 746 mmHg 66%
17:00 +15°C° 0 mm 4 mps 746 mmHg 62%
18:00 +15°C° 0 mm 4 mps 746 mmHg 62%
19:00 +15°C° 0 mm 5 mps 747 mmHg 61%
20:00 +14°C° 0 mm 5 mps 747 mmHg 61%
21:00 +14°C° 0 mm 5 mps 747 mmHg 59%
22:00 +14°C° 0 mm 5 mps 747 mmHg 57%
23:00 +14°C° 0 mm 5 mps 747 mmHg 55%

2 October, Friday

Time Temperature Precipitation Wind Pressure Humidity
00:00 +14°C° 0 mm 6 mps 747 mmHg 55%
01:00 +14°C° 0 mm 6 mps 747 mmHg 55%
02:00 +14°C° 0 mm 6 mps 746 mmHg 54%
03:00 +14°C° 0.8 mm 6 mps 747 mmHg 59%
04:00 +13°C° 0.8 mm 6 mps 747 mmHg 63%
05:00 +13°C° 0.8 mm 5 mps 747 mmHg 68%
06:00 +13°C° 0 mm 6 mps 747 mmHg 66%
07:00 +14°C° 0 mm 6 mps 747 mmHg 64%
08:00 +14°C° 0 mm 6 mps 747 mmHg 63%
09:00 +15°C° 0 mm 6 mps 747 mmHg 59%
10:00 +16°C° 0 mm 7 mps 747 mmHg 55%
11:00 +18°C° 0 mm 7 mps 747 mmHg 51%
12:00 +20°C° 0 mm 6 mps 747 mmHg 49%
13:00 +20°C° 0 mm 6 mps 746 mmHg 48%
14:00 +21°C° 0 mm 5 mps 746 mmHg 46%
15:00 +20°C° 0 mm 5 mps 746 mmHg 49%
16:00 +20°C° 0 mm 4 mps 746 mmHg 52%
17:00 +19°C° 0 mm 3 mps 746 mmHg 55%
18:00 +18°C° 0.8 mm 3 mps 746 mmHg 64%
19:00 +17°C° 0.8 mm 2 mps 746 mmHg 74%
20:00 +16°C° 0.8 mm 2 mps 746 mmHg 83%
21:00 +16°C° 0.4 mm 2 mps 746 mmHg 83%
22:00 +16°C° 0.4 mm 2 mps 746 mmHg 82%
23:00 +16°C° 0.4 mm 2 mps 746 mmHg 82%

3 October, Saturday

Time Temperature Precipitation Wind Pressure Humidity
00:00 +15°C° 0.1 mm 2 mps 746 mmHg 81%
01:00 +15°C° 0.1 mm 2 mps 746 mmHg 79%
02:00 +15°C° 0.1 mm 2 mps 746 mmHg 78%
03:00 +14°C° 0 mm 2 mps 747 mmHg 78%
04:00 +14°C° 0 mm 2 mps 747 mmHg 78%
05:00 +14°C° 0 mm 2 mps 747 mmHg 78%
06:00 +14°C° 0 mm 3 mps 747 mmHg 76%
07:00 +16°C° 0 mm 3 mps 747 mmHg 73%
08:00 +17°C° 0 mm 3 mps 748 mmHg 71%
09:00 +19°C° 0 mm 3 mps 748 mmHg 65%
10:00 +20°C° 0 mm 3 mps 748 mmHg 60%
11:00 +22°C° 0 mm 3 mps 748 mmHg 55%
12:00 +22°C° 0 mm 3 mps 748 mmHg 51%
13:00 +24°C° 0 mm 3 mps 748 mmHg 47%
14:00 +24°C° 0 mm 2 mps 748 mmHg 44%
15:00 +24°C° 0 mm 2 mps 748 mmHg 47%
16:00 +23°C° 0 mm 2 mps 748 mmHg 49%
17:00 +22°C° 0 mm 1 mps 748 mmHg 52%
18:00 +22°C° 0 mm 1 mps 748 mmHg 54%
19:00 +21°C° 0 mm 1 mps 749 mmHg 57%
20:00 +20°C° 0 mm 1 mps 749 mmHg 59%
21:00 +20°C° 0 mm 1 mps 749 mmHg 62%
22:00 +19°C° 0 mm 1 mps 749 mmHg 64%
23:00 +18°C° 0 mm 1 mps 749 mmHg 66%
Show more